Weather History for Cape Girardeau, MO

Change the Weather History Date:

Sunday, September 29, 2013

  Actual Average Record
Temperature  
Mean Temperature 68 °F 63 °F  
Max Temperature 72 °F 76 °F 95 °F (1998)
Min Temperature 64 °F 51 °F 35 °F (2003)
Degree Days  
Heating Degree Days 0 4  
Month to date heating degree days 10 41  
Since 1 July heating degree days 11 42  
Cooling Degree Days 3 3  
Month to date cooling degree days 209 161  
Year to date cooling degree days 1390 1421  
Growing Degree Days 18 (Base 50)    
Moisture  
Dew Point 63 °F    
Average Humidity 83    
Maximum Humidity 100    
Minimum Humidity 66    
Precipitation  
Precipitation T in 0.10 in 0.70 in (1972)
Month to date precipitation 0.44 3.17  
Year to date precipitation 28.67 34.22  
Sea Level Pressure  
Sea Level Pressure 30.01 in    
Wind  
Wind Speed 5 mph (SSE)    
Max Wind Speed 10 mph    
Max Gust Speed 15 mph    
Visibility 6 miles    
Events Rain    
T = Trace of Precipitation, MM = Missing Value Source: NWS Daily Summary

Daily Weather History Graph

Daily Weather History Graph

Search for Another Location

Airport:

Trip Planner

Search our weather history database for the weather conditions in past years. The results will help you decide how hot, cold, wet, or windy it might be!

Date:

Astronomy

Sep. 29, 2013 Rise Set
Actual Time 6:52 AM CDT 6:44 PM CDT
Civil Twilight 6:26 AM CDT 7:10 PM CDT
Nautical Twilight 5:56 AM CDT 7:40 PM CDT
Astronomical Twilight 5:25 AM CDT 8:10 PM CDT
Moon 1:39 AM CDT (9/29) 3:34 PM CDT (9/29)
Length of Visible Light 12h 43m
Length of Day
11h 51m
Waning Crescent, 27% of the Moon is Illuminated
Sep 29
Waning Crescent
Oct 4
New
Oct 11
First Quarter
Oct 18
Full
Oct 26
Last Quarter

Hourly Weather History & Observations

Time (CDT) Temp. Dew Point Humidity Pressure Visibility Wind Dir Wind Speed Gust Speed Precip Events Conditions
12:53 AM 70.0 °F 60.1 °F 71% 30.01 in 10.0 mi South 6.9 mph - N/A   Overcast
1:53 AM 71.1 °F 59.0 °F 66% 30.01 in 10.0 mi South 8.1 mph - N/A   Overcast
2:53 AM 69.1 °F 61.0 °F 75% 30.01 in 10.0 mi SW 5.8 mph - 0.00 in Rain Light Rain
3:53 AM 66.9 °F 62.1 °F 84% 29.99 in 10.0 mi South 8.1 mph - 0.00 in   Overcast
4:53 AM 66.0 °F 62.1 °F 87% 29.99 in 10.0 mi South 6.9 mph - 0.00 in   Overcast
5:42 AM 66.2 °F 62.6 °F 88% 30.02 in 10.0 mi SSW 4.6 mph - N/A   Overcast
5:53 AM 66.0 °F 62.1 °F 87% 30.01 in 10.0 mi SSW 5.8 mph - N/A   Overcast
6:53 AM 64.9 °F 63.0 °F 93% 30.02 in 6.0 mi SSW 4.6 mph - 0.00 in   Overcast
7:13 AM 64.4 °F 62.6 °F 94% 30.03 in 7.0 mi South 4.6 mph - 0.00 in   Overcast
7:45 AM 64.4 °F 62.6 °F 94% 30.03 in 7.0 mi South 3.5 mph - 0.00 in   Overcast
7:53 AM 64.9 °F 63.0 °F 93% 30.02 in 7.0 mi South 4.6 mph - 0.00 in   Overcast
8:18 AM 64.4 °F 64.4 °F 100% 30.03 in 3.0 mi South 4.6 mph - N/A   Overcast
8:29 AM 64.4 °F 64.4 °F 100% 30.03 in 2.5 mi South 4.6 mph - N/A   Overcast
8:53 AM 64.9 °F 64.0 °F 97% 30.03 in 2.5 mi South 4.6 mph - 0.00 in Rain Light Rain
9:09 AM 64.4 °F 64.4 °F 100% 30.03 in 3.0 mi South 4.6 mph - 0.00 in   Overcast
9:29 AM 64.4 °F 64.4 °F 100% 30.04 in 2.0 mi South 4.6 mph - 0.00 in   Overcast
9:36 AM 66.2 °F 64.4 °F 94% 30.04 in 1.5 mi South 4.6 mph - 0.00 in   Overcast
9:53 AM 66.0 °F 64.9 °F 96% 30.04 in 2.0 mi SSW 3.5 mph - 0.00 in   Overcast
10:11 AM 66.2 °F 64.4 °F 94% 30.04 in 3.0 mi SW 3.5 mph - N/A   Overcast
10:53 AM 64.0 °F 62.1 °F 93% 30.04 in 6.0 mi North 9.2 mph - 0.00 in   Overcast
11:10 AM 64.4 °F 62.6 °F 94% 30.04 in 7.0 mi North 8.1 mph - N/A   Overcast
11:48 AM 66.2 °F 62.6 °F 88% 30.04 in 10.0 mi North 8.1 mph - N/A   Overcast
11:53 AM 66.0 °F 63.0 °F 90% 30.03 in 10.0 mi North 6.9 mph - N/A   Overcast
12:53 PM 64.9 °F 62.1 °F 90% 30.02 in 6.0 mi North 8.1 mph - N/A   Overcast
1:16 PM 64.4 °F 62.6 °F 94% 30.02 in 2.0 mi North 6.9 mph - N/A   Overcast
1:27 PM 64.4 °F 62.6 °F 94% 30.02 in 3.0 mi North 8.1 mph - N/A   Overcast
1:53 PM 64.9 °F 63.0 °F 93% 30.00 in 3.0 mi North 6.9 mph - N/A   Overcast
2:53 PM 66.9 °F 63.0 °F 87% 29.99 in 9.0 mi Variable 4.6 mph - N/A   Overcast
3:53 PM 66.9 °F 63.0 °F 87% 29.98 in 10.0 mi NNE 6.9 mph - N/A   Overcast
4:53 PM 66.0 °F 62.1 °F 87% 29.98 in 10.0 mi NE 4.6 mph - N/A   Overcast
5:40 PM 66.2 °F 62.6 °F 88% 29.99 in 6.0 mi ENE 6.9 mph - N/A   Overcast
5:53 PM 66.0 °F 63.0 °F 90% 29.98 in 5.0 mi ENE 5.8 mph - N/A   Overcast
6:03 PM 66.2 °F 62.6 °F 88% 29.99 in 10.0 mi ENE 5.8 mph - N/A   Overcast
6:29 PM 64.4 °F 62.6 °F 94% 29.99 in 10.0 mi ENE 4.6 mph - N/A   Overcast
6:53 PM 64.9 °F 63.0 °F 93% 29.99 in 8.0 mi ENE 5.8 mph - N/A   Overcast
7:53 PM 64.9 °F 64.0 °F 97% 29.99 in 1.8 mi ENE 3.5 mph - N/A   Overcast
8:03 PM 64.4 °F 64.4 °F 100% 30.00 in 2.0 mi ESE 3.5 mph - N/A   Overcast
8:27 PM 64.4 °F 64.4 °F 100% 30.00 in 3.0 mi SE 4.6 mph - N/A   Overcast
8:53 PM 64.9 °F 63.0 °F 93% 29.99 in 6.0 mi SSE 5.8 mph - N/A   Overcast
9:53 PM 64.0 °F 63.0 °F 96% 29.99 in 9.0 mi SE 4.6 mph - N/A   Overcast
10:53 PM 64.0 °F 63.0 °F 96% 29.99 in 8.0 mi Calm Calm - N/A   Overcast
11:53 PM 64.0 °F 63.0 °F 96% 29.98 in 6.0 mi Calm Calm - N/A   Overcast